Starlink 11113

operational
NORAD ID: 59947 Int'l Des: 2024-107 Owner: SPXS Country: US Constellation: starlink
LEOCIRCULAR

Starlink 11113について

説明を読み込み中...

リアルタイム位置

3D地球を読み込み中...

次回通過

高度履歴

Altitude vs Time

uPlot chart will show altitude changes over time

軌道要素

1 59947U 24107C 25260.52613456 -.00000258 00000-0 27292-5 0 9998
2 59947 53.1594 24.5245 0000934 59.1231 300.9878 15.69714924 74950
Epoch: Sep 17, 2025 • Age: 29 hours

現在のステータス

高度 360.1 km
速度 7.69 km/s
衛星直下点 2.08°N, 117.14°E
打ち上げ日 Jun 5, 2024
運用期間 1.2 years
タイプ internet

技術仕様

分類 Payload
質量 960.00 kg
乾燥質量 910.00 kg
総質量 960.00 kg
長さ 0.30 m
直径 4.10 m
スパン 29.00 m
形状 Box + pan
製造者 SPXS
バスタイプ Starlink V2MD
フェーズステータス In Orbit
所有者/国 SPXS/US

大規模コンステレーション

Loading constellations...